GFSSE_250_rhum_117.txt.gz
RH
87 81 99 91 82 75 71 61 56 76 100 98 82 68 57 56 66 74 71 67 65 50 49 47 43 41 42 42 56 68 72 78 71 46 34 41 44 42 42 41 43 44 40
50 68 74 97 87 77 72 71 63 60 63 90 100 99 84 74 79 83 91 83 70 59 54 51 53 47 46 48 50 46 54 80 72 46 39 35 39 44 44 46 47 51 52
20 36 62 80 77 68 74 69 68 60 63 85 89 94 100 100 98 90 95 90 93 73 64 59 55 53 53 49 46 46 45 47 55 45 44 45 42 41 44 43 46 47 48
17 19 25 31 36 54 63 60 63 63 84 85 85 85 98 93 100 100 100 90 89 84 70 62 64 64 59 58 54 50 50 48 48 48 50 52 50 49 47 45 43 45 46
21 19 19 20 26 41 41 35 36 40 80 95 100 98 89 100 90 92 100 100 99 87 79 71 65 71 63 58 58 57 56 55 53 52 53 56 58 58 56 53 51 50 50
29 29 27 26 20 32 87 71 46 37 49 63 59 61 100 100 100 100 100 100 100 99 96 92 87 76 62 59 65 68 67 62 55 59 56 63 67 64 63 63 60 59 58
32 27 23 23 32 28 27 36 50 55 46 41 44 63 69 71 97 100 100 100 100 100 100 99 92 88 78 78 85 91 89 83 71 66 71 69 60 72 76 68 69 67 66
60 52 39 32 23 25 30 30 37 39 34 35 34 32 37 44 56 95 100 100 100 100 100 100 100 100 100 97 96 99 98 100 90 81 78 85 85 73 74 97 86 78 78
85 78 65 55 50 44 41 37 36 42 44 40 33 36 29 26 27 32 46 64 89 100 100 100 100 100 100 100 100 100 100 100 100 92 86 90 100 100 97 92 92 100 100
74 88 96 84 80 76 73 72 52 42 35 40 42 49 44 38 32 32 38 54 62 71 81 84 89 97 100 100 98 98 100 100 100 100 100 97 86 88 94 92 86 95 76
74 62 55 63 93 92 99 93 92 84 59 51 43 41 52 55 45 39 41 73 83 74 61 59 56 55 52 56 60 68 76 88 98 100 100 100 100 99 94 92 90 95 86
71 72 68 64 55 51 60 84 92 95 96 89 78 57 49 51 56 55 50 49 53 69 82 85 87 78 52 33 38 55 61 67 68 75 88 95 88 80 79 83 90 97 88
98 97 98 77 58 57 57 53 56 83 82 82 94 86 70 69 62 64 67 60 47 52 53 70 78 76 71 54 53 54 47 50 53 50 42 37 33 31 33 40 43 53 74
94 85 82 78 63 58 53 50 52 48 48 58 68 63 83 63 63 67 71 70 74 72 63 52 70 95 89 76 70 63 72 66 78 76 72 57 58 68 69 62 54 50 50
81 76 63 63 72 55 46 40 43 41 41 44 41 45 43 45 49 55 55 65 76 80 88 76 74 94 99 82 82 97 100 88 81 71 72 76 80 77 70 63 68 72 62
64 62 61 59 51 51 49 42 34 32 33 35 43 42 38 34 37 46 45 45 53 73 76 92 95 98 100 94 86 81 93 100 100 94 86 69 68 84 80 66 68 74 72
45 46 49 47 43 40 46 51 38 27 26 25 31 37 37 36 33 35 44 47 45 48 55 73 92 96 95 100 98 93 100 85 92 100 98 89 75 84 86 74 76 76 81
52 52 52 48 44 39 36 34 32 26 24 25 21 19 24 28 31 29 30 29 31 49 39 51 66 83 89 96 94 82 89 96 94 77 74 78 85 74 77 82 92 83 79
50 49 50 48 41 37 34 28 25 19 16 16 19 17 17 18 21 24 27 29 29 25 35 38 46 74 82 88 99 100 92 98 100 82 88 99 91 98 91 100 100 98 86
50 46 43 40 33 25 24 19 9 6 7 7 8 10 10 12 13 15 16 19 27 24 22 25 30 46 71 68 86 93 96 88 98 96 100 100 100 100 100 92 100 100 99
12 10 10 9 9 9 7 6 5 6 6 6 6 6 8 9 10 12 13 15 17 19 23 24 21 34 41 50 53 72 84 90 84 88 88 90 100 100 100 100 99 98 100
9 8 8 7 7 6 6 6 6 5 5 5 4 4 4 4 4 5 5 6 9 11 15 20 20 25 32 38 45 47 57 80 90 76 71 90 80 77 100 100 98 91 93
9 7 6 6 6 5 5 4 4 4 3 3 3 3 3 4 4 4 5 4 5 5 6 10 18 29 26 36 44 37 52 73 52 61 83 81 86 73 71 100 100 96 82
9 7 6 6 4 4 3 3 3 2 2 2 2 2 2 2 3 4 4 5 5 6 6 7 7 14 25 35 35 54 55 54 85 49 46 57 57 56 58 60 88 95 93
8 7 6 5 3 3 3 2 2 2 2 2 2 2 2 2 2 2 3 5 6 7 12 9 7 7 7 12 30 32 37 46 87 56 49 54 42 44 52 50 47 73 90
10 6 4 4 3 4 4 3 2 2 2 2 2 2 2 2 2 2 3 4 11 24 26 13 8 7 6 7 15 30 33 43 49 52 44 50 40 43 40 34 36 46 63

GFSSE_250_rhum_120.txt.gz
RH
94 100 89 100 97 94 84 83 77 68 64 85 100 98 73 63 52 50 62 76 82 76 78 68 61 53 53 52 47 51 46 48 63 70 53 39 37 38 41 45 48 48 47
47 37 65 86 92 84 93 99 93 78 70 71 67 64 100 92 80 77 75 78 85 89 88 86 75 69 61 56 58 52 50 48 48 47 55 46 41 43 41 41 44 47 50
18 20 25 33 43 57 72 86 92 82 78 76 67 58 63 98 100 100 100 95 87 94 85 79 75 70 67 69 64 64 60 54 49 51 54 49 48 49 49 47 46 45 42
18 17 18 18 24 39 56 63 60 55 63 69 68 63 60 76 76 93 99 100 100 99 87 78 78 71 65 67 68 57 57 61 62 55 53 54 53 55 56 56 56 54 52
22 22 24 32 32 21 29 29 41 48 53 48 50 56 64 100 94 75 75 85 84 95 98 91 84 83 79 72 70 71 66 64 65 68 70 61 57 59 60 61 59 60 60
23 23 26 23 45 33 34 22 56 82 73 48 37 36 61 78 97 100 100 100 100 100 92 100 100 98 87 89 82 74 76 68 70 86 88 82 76 69 66 61 69 70 65
24 23 22 22 38 20 22 32 34 35 50 55 60 56 45 58 63 54 52 75 94 100 100 94 88 97 95 93 91 89 84 85 83 82 100 100 94 87 88 86 83 77 92
34 38 32 28 28 26 23 24 23 29 39 44 49 51 49 46 44 41 46 56 60 69 100 100 97 100 100 100 100 100 100 99 99 92 93 96 98 98 98 100 100 98 85
48 47 50 44 40 46 47 42 36 31 28 36 35 41 51 46 44 42 32 30 32 38 64 92 97 100 100 100 100 98 100 100 100 100 100 100 100 100 92 92 96 100 100
53 51 56 54 47 45 50 60 65 70 72 67 51 46 45 38 41 44 47 39 33 30 29 39 52 64 80 96 99 100 100 100 100 96 100 92 89 95 93 94 82 81 94
67 68 68 71 69 63 59 58 57 47 44 52 75 88 88 76 66 54 48 47 41 38 38 54 63 77 67 68 66 64 62 68 65 65 60 76 81 83 89 90 90 100 100
70 74 80 83 77 79 80 82 77 68 61 57 50 48 58 72 82 78 74 57 43 43 40 47 62 79 94 79 80 81 56 45 36 34 40 61 65 74 73 74 82 75 72
79 86 92 96 93 94 99 100 99 90 88 71 56 50 59 62 62 67 79 73 60 47 44 49 47 51 49 63 80 80 86 68 54 46 50 53 49 44 43 43 37 33 37
100 98 94 100 100 99 100 97 86 76 64 65 58 47 45 50 52 57 50 56 68 67 64 56 56 50 44 48 51 60 79 90 73 67 74 73 64 68 73 72 66 69 73
94 99 94 84 80 68 64 70 66 57 53 49 48 44 36 32 37 41 41 44 42 41 61 56 62 71 67 54 54 60 51 83 92 90 88 78 77 69 66 65 78 77 79
81 94 89 81 62 51 48 43 46 46 38 37 34 37 31 30 29 31 35 38 36 34 34 38 50 52 69 73 71 71 74 62 89 86 94 100 99 67 73 68 74 83 75
57 54 51 55 60 54 44 37 32 30 28 28 27 25 28 28 25 24 23 26 31 34 42 38 35 43 50 52 70 78 74 75 71 92 96 100 98 88 84 84 80 75 76
58 57 53 48 47 46 43 41 38 32 27 31 31 28 25 24 26 24 23 23 24 26 30 38 43 40 42 37 45 65 83 79 74 79 84 100 100 89 76 78 83 70 77
56 50 48 46 43 40 37 34 34 30 28 27 29 27 30 22 20 19 20 22 21 20 27 28 32 39 38 33 42 56 79 89 92 84 89 96 93 94 97 84 96 73 82
46 41 43 43 43 40 38 35 30 32 31 29 26 17 12 12 12 12 16 17 18 12 14 22 25 28 31 32 30 34 46 67 94 100 83 100 100 86 80 100 96 92 98
34 39 31 16 14 13 10 9 8 7 6 6 6 6 6 6 6 6 6 6 6 6 6 8 15 22 30 31 25 33 38 44 77 98 89 100 100 100 94 100 98 100 100
13 12 10 10 10 8 7 6 6 5 5 5 4 4 4 4 4 4 4 5 5 5 6 6 6 8 16 20 19 26 36 46 44 70 95 98 94 100 100 93 95 96 100
13 14 14 13 14 10 8 7 6 5 4 4 3 3 3 3 3 4 4 4 4 5 6 6 6 6 8 12 16 19 32 43 48 48 55 70 78 91 97 90 91 88 80
19 17 17 17 13 9 8 6 4 4 3 3 3 2 2 2 2 2 2 3 3 4 5 6 6 6 7 8 8 10 11 22 41 62 50 41 49 64 65 72 76 72 87
15 15 20 22 18 12 8 5 4 4 3 3 3 3 2 2 2 2 2 2 3 3 4 5 6 8 8 10 10 9 8 10 17 34 65 70 51 44 56 82 66 81 63
21 27 27 23 20 15 9 6 7 8 5 4 3 3 2 2 2 2 2 2 2 3 3 5 9 11 14 12 12 10 10 8 10 11 15 39 60 67 76 92 100 80 88

GFSSE_250_rhum_123.txt.gz
RH
89 90 92 91 86 78 69 74 75 72 90 87 74 71 100 100 90 67 52 47 54 64 70 74 72 71 68 67 64 59 52 51 52 51 56 56 50 42 42 45 44 46 47
72 48 35 75 92 80 60 73 73 67 75 76 71 59 68 77 70 91 82 64 59 57 70 74 70 66 61 63 64 66 62 60 54 51 50 48 49 48 47 45 48 48 46
18 18 19 20 23 24 27 46 55 53 57 70 77 78 75 73 67 59 100 96 79 81 76 76 79 75 70 59 55 59 64 57 56 57 56 56 52 52 49 49 52 52 52
19 19 18 24 23 30 27 28 31 36 49 48 56 56 54 72 70 55 56 88 100 100 100 100 97 91 88 81 76 68 62 66 62 58 63 61 62 68 62 54 51 51 57
21 22 21 20 27 50 56 35 37 42 39 38 46 48 48 50 59 57 47 55 60 68 100 100 100 100 95 90 85 78 77 73 72 78 74 71 79 85 82 78 63 58 56
24 26 27 24 22 38 86 41 32 35 29 38 63 85 74 49 39 40 46 68 80 92 89 95 100 100 95 98 92 88 85 80 81 77 74 75 77 99 100 98 86 74 73
26 24 24 24 23 21 24 49 42 37 37 43 43 45 49 51 54 53 44 52 72 72 70 73 81 88 96 100 100 98 88 86 84 96 93 92 92 96 95 99 95 94 92
28 27 26 26 26 24 22 30 25 28 30 42 34 37 38 46 50 51 52 54 60 57 46 50 50 64 69 84 96 100 100 100 100 100 100 100 100 100 100 100 100 95 92
38 39 37 35 38 37 35 34 32 30 28 29 35 40 49 49 43 43 46 47 48 51 49 52 38 40 53 78 86 84 83 91 100 100 100 100 97 95 100 92 100 100 100
54 58 60 58 51 46 45 48 52 50 42 40 42 40 36 42 42 48 48 40 37 39 46 51 49 45 35 41 64 73 74 73 77 83 98 100 100 100 100 100 100 99 100
60 62 65 65 66 69 70 71 72 76 69 63 55 53 56 47 41 46 45 44 44 48 42 36 42 48 53 59 62 59 66 70 67 63 64 62 59 62 59 56 60 76 90
67 69 70 70 72 72 72 74 81 86 90 83 81 76 71 74 63 52 55 43 48 46 38 42 36 34 42 48 74 91 95 81 81 82 65 52 44 36 36 36 49 66 71
79 82 88 94 99 98 84 86 90 100 89 76 89 99 96 83 88 78 61 50 43 38 46 48 40 48 36 35 43 59 69 91 90 83 86 75 67 53 46 45 58 54 50
88 92 86 75 71 68 80 78 79 95 97 96 96 70 69 65 68 65 67 51 40 39 38 41 45 42 42 43 36 36 50 56 60 69 77 78 78 71 61 66 70 69 75
66 67 79 78 77 78 77 74 71 67 66 68 67 63 54 48 44 40 36 40 39 35 32 33 38 48 44 37 39 41 37 34 43 57 69 65 59 88 84 79 73 72 59
54 53 59 62 65 63 58 58 60 61 53 56 64 63 58 48 44 39 35 36 33 30 31 26 27 33 40 48 39 36 40 41 37 37 54 76 74 74 100 98 84 97 69
48 49 50 53 53 56 52 50 47 46 42 45 41 38 37 34 33 33 28 26 27 28 27 27 27 28 31 37 45 42 37 42 45 52 45 44 61 77 90 100 99 99 100
52 50 49 53 55 50 47 49 49 51 49 44 39 35 33 31 31 31 27 24 24 21 21 24 26 27 32 32 40 43 43 40 40 42 59 54 48 61 75 91 96 100 99
59 55 52 49 47 45 40 41 36 44 40 30 26 26 25 24 20 18 17 18 18 16 16 18 20 24 26 27 32 38 43 48 46 43 43 50 58 82 84 88 88 100 100
61 56 57 57 42 30 32 24 18 11 10 9 10 11 10 7 7 7 7 8 12 14 14 12 8 9 10 16 23 30 33 38 44 44 40 48 47 73 99 100 85 79 81
58 59 48 22 16 20 14 9 9 8 7 6 6 6 6 6 5 5 4 4 5 5 6 6 6 6 5 6 8 13 24 30 32 37 37 45 50 50 89 100 100 100 94
32 22 17 14 13 13 14 14 12 10 8 7 6 5 5 4 4 4 4 4 4 4 5 5 6 7 7 6 7 7 8 12 10 11 28 32 50 70 80 95 98 100 100
16 20 20 21 24 21 18 16 11 9 8 8 6 4 3 3 2 3 3 3 3 3 3 4 4 5 6 7 7 7 7 9 10 9 12 22 38 66 85 92 98 93 100
25 24 23 21 19 16 13 11 14 16 16 13 10 7 4 3 3 2 2 2 2 2 2 3 3 4 5 6 7 8 8 9 9 11 14 16 18 52 80 100 100 100 94
22 17 14 12 11 12 17 28 30 28 24 21 14 8 6 5 4 3 3 3 2 2 2 3 3 3 4 5 6 8 9 10 11 11 13 16 19 27 75 96 100 100 100
12 12 13 17 24 34 34 31 26 21 20 20 19 13 8 7 5 4 3 3 3 2 2 2 2 3 3 4 6 8 10 11 12 9 10 14 18 20 24 45 73 98 100

GFSSE_250_rhum_126.txt.gz
RH
52 59 69 70 64 74 63 70 66 54 59 76 83 100 93 74 65 100 100 86 65 48 50 55 62 68 59 47 46 46 50 52 48 48 47 47 46 45 42 46 46 49 48
77 62 59 55 60 27 62 75 74 58 45 56 64 63 71 70 67 65 77 73 78 89 68 54 56 65 65 65 59 51 48 50 48 48 50 49 46 50 49 47 49 48 48
54 24 17 18 18 20 24 33 36 26 37 50 51 46 71 74 72 64 70 70 66 75 99 77 70 68 72 75 73 73 61 54 57 58 49 50 50 55 58 60 60 52 51
19 19 18 18 18 22 30 26 27 30 28 32 32 38 51 49 52 52 44 57 62 60 82 100 100 98 97 90 80 76 77 78 74 66 66 67 63 65 66 72 81 80 69
21 21 21 21 21 22 22 38 52 53 41 35 34 39 38 50 56 50 50 49 48 45 43 66 92 98 99 97 100 94 78 83 83 79 79 77 78 71 75 69 74 83 92
26 26 25 22 22 23 22 24 53 57 52 29 36 60 56 47 45 65 64 53 43 36 38 48 60 71 94 94 86 79 85 86 84 78 80 79 86 82 87 86 82 84 86
28 27 26 27 27 25 25 25 25 24 29 46 55 72 69 62 52 41 38 43 50 50 41 39 51 54 72 89 94 93 99 100 100 92 84 90 99 100 100 100 100 97 94
32 32 30 29 28 28 29 28 29 31 30 30 30 31 36 47 70 77 72 59 52 62 59 55 53 49 50 49 44 52 75 73 85 100 97 100 100 100 100 100 98 97 85
41 40 42 44 44 44 44 41 36 39 39 41 43 48 52 48 34 32 43 51 56 49 47 51 54 52 51 53 63 56 53 57 73 87 98 93 89 84 82 83 96 100 100
50 50 51 51 51 56 58 61 60 60 61 58 55 58 59 58 55 50 36 32 32 36 47 47 37 49 49 43 46 70 74 57 48 56 87 95 93 88 90 94 97 98 100
56 55 55 58 64 64 62 63 64 66 71 74 71 66 67 65 57 55 58 60 42 36 34 35 40 42 38 43 45 48 56 61 71 68 57 56 67 72 73 67 67 63 61
69 71 73 71 68 66 68 70 77 82 80 92 97 92 83 90 92 78 67 66 65 69 54 40 36 39 42 39 38 30 41 49 67 78 82 78 70 71 66 66 57 50 42
68 82 87 84 85 83 83 80 70 66 61 59 59 67 68 59 74 89 96 81 82 81 78 65 51 44 40 44 35 35 31 27 44 67 71 84 85 84 78 81 78 62 55
85 96 87 88 92 89 83 74 70 85 92 85 86 82 86 89 82 72 67 63 60 64 66 64 52 50 49 42 42 34 38 41 34 33 49 64 71 74 70 77 80 78 71
82 84 79 78 72 67 62 62 61 55 49 56 62 62 61 60 57 55 62 62 60 58 57 56 50 51 53 47 45 39 32 38 38 37 33 32 46 59 62 73 70 72 68
73 74 73 77 77 77 76 76 74 60 52 49 50 56 53 46 43 43 44 45 45 42 46 50 53 49 48 50 48 39 36 36 34 37 39 39 40 31 40 54 73 74 70
61 62 64 68 74 73 69 65 62 56 51 50 50 51 48 39 32 30 30 31 26 23 24 29 33 34 35 37 38 36 40 38 34 34 41 43 39 42 36 36 46 60 71
72 70 68 70 71 68 66 64 64 64 59 52 44 40 31 33 24 14 14 17 18 15 12 10 14 19 21 25 27 29 32 34 35 34 35 40 54 52 43 40 39 65 59
76 72 62 57 57 57 59 53 48 49 51 47 45 35 22 13 8 8 7 6 6 7 7 8 8 7 8 10 15 22 26 27 26 26 33 38 38 47 57 41 41 50 55
65 54 42 35 43 50 54 46 37 30 26 19 12 11 10 9 9 7 6 6 5 5 5 5 5 6 7 7 6 8 12 18 31 29 29 30 35 34 40 52 46 50 70
53 45 23 21 23 21 19 16 13 13 11 13 16 16 16 13 8 6 6 6 5 4 4 4 4 4 4 6 6 6 8 10 11 23 30 28 28 32 35 42 49 48 61
17 13 15 15 13 13 15 16 18 18 17 15 13 12 12 12 10 7 9 6 4 3 3 3 3 3 4 4 4 5 6 6 6 10 17 19 20 23 26 35 38 43 46
15 18 23 24 24 23 21 19 17 14 12 14 18 22 23 23 20 18 14 11 4 2 2 2 2 2 3 3 4 4 5 6 7 8 9 12 13 14 15 22 37 44 47
26 25 23 22 20 15 13 14 19 25 26 24 26 27 26 26 23 19 16 13 7 4 3 4 2 2 2 3 3 4 4 5 7 8 8 9 10 15 14 12 16 28 40
22 16 14 13 15 23 30 34 36 34 34 31 26 23 20 20 20 18 18 14 8 4 3 4 3 2 2 2 2 3 4 5 6 7 10 10 13 17 16 15 18 28 22
20 28 32 30 29 34 34 34 33 32 30 28 24 22 18 14 13 14 15 14 11 5 4 4 4 4 3 3 3 3 3 4 6 7 8 10 15 15 21 22 16 18 22